Home   Weather   Innsbruck   Past weeks

Flag for Austria Past Weather in Innsbruck, Tyrol, Austria — Yesterday and Last 2 Weeks

Now
29 °F

Passing clouds.


Feels Like: N/A
Forecast: 26 / 46 °F
Wind: N/A

Location: Innsbruck-Flughafen

Current Time: Dec 8, 2016 at 9:27:18 pm

Latest Report: Dec 8, 2016 at 8:00 pm


Visibility: 7 mi

Pressure: 30.66 "Hg (28.54 "Hg at 570m altitude)

Humidity: 73%

Dew Point: 22 °F

Location of InnsbruckLocation

Past Weather in Innsbruck — Graph

°F

Innsbruck Temperature Yesterday

Maximum temperature yesterday: 42 °F (at 3:00 pm)
Minimum temperature yesterday: 20 °F (at 6:00 am)
Average temperature yesterday: 27 °F

High & Low Weather Summary for the Past Weeks

 TemperatureHumidityPressure
High51 °F (Nov 24, 2:00 pm)100% (Nov 25, 4:00 am)30.78 "Hg (Nov 25, 4:00 am)
Low19 °F (Dec 5, 6:00 am)33% (Dec 7, 3:00 pm)29.98 "Hg (Nov 25, 3:00 pm)
Average32 °F80%30.35 "Hg
* Reported Nov 23 8:00 pm — Dec 8 8:00 pm, Innsbruck, Weather by CustomWeather, © 2016

Note: Actual official high and low records may vary slightly from our data, if they occured in-between our weather recording intervals... More about our weather records

Advertising

Innsbruck Weather History for the Previous 24 Hours

Scroll right to see more
 ConditionsComfort  
Time TempWeatherWind HumidityBarometerVisibility
8:00 pm
Thu, Dec 8
29 °FPassing clouds.N/A73%30.66 "Hg7 mi
7:00 pm29 °FPassing clouds.N/A76%30.65 "Hg4 mi
5:00 pm33 °FPassing clouds.N/A62%30.61 "Hg6 mi
4:00 pm37 °FPassing clouds.N/A50%30.58 "Hg7 mi
3:00 pm44 °FPassing clouds.N/A40%30.54 "Hg11 mi
2:00 pm44 °FPassing clouds.N/A36%30.55 "Hg9 mi
1:00 pm42 °FPassing clouds.N/A39%30.57 "Hg6 mi
12:00 pm39 °FPassing clouds.N/A47%30.62 "Hg6 mi
11:00 am33 °FPassing clouds.N/A62%30.69 "Hg4 mi
10:00 am28 °FScattered clouds.N/A75%30.73 "Hg4 mi
9:00 am22 °FScattered clouds.N/A85%30.76 "Hg11 mi
8:00 am20 °FPassing clouds.N/A86%30.77 "Hg17 mi
7:00 am20 °FPassing clouds.N/A87%30.77 "Hg12 mi
6:00 am21 °FPassing clouds.N/A85%30.76 "Hg17 mi
5:00 am19 °FCold.N/A86%30.77 "Hg13 mi
4:00 am21 °FPassing clouds.No wind86%30.76 "Hg15 mi
2:00 am22 °FCold.N/A83%30.76 "Hg12 mi
1:00 am22 °FCold.N/A85%30.77 "Hg10 mi
12:00 am22 °FCold.N/A83%30.78 "Hg11 mi
11:00 pm
Wed, Dec 7
23 °FPassing clouds.N/A80%30.76 "Hg11 mi
10:00 pm24 °FPassing clouds.N/A79%30.74 "Hg9 mi
9:00 pm26 °FPassing clouds.N/A74%30.72 "Hg12 mi
Weather by CustomWeather, © 2016

See weather overviewHow to use our weather pages